Tracking 34305 objects as of 7-Jun-2026
HD Live streaming from Space Station
objects crossing your sky now

OBJECT K

Track OBJECT K now!
10-day predictions


NORAD ID: 61744
Int'l Code: 2024-199K
Perigee: 415.5 km
Apogee: 424.1 km
Inclination: 97.3 °
Period: 92.8 minutes
Semi major axis: 6790 km
RCS: Unknown
Launch date: November 4, 2024
Source: (TBD)
Launch site: VOSTOCHNY COSMODROME (VOSTO)
Your satellite tracking list
Your tracking list is empty




NASA's NSSDC Master Catalog

Two Line Element Set (TLE):
1 61744U 24199K   26157.98614285  .00032364  00000-0  54942-3 0  9996
2 61744  97.2974  33.0531 0006325 323.4781  36.6039 15.51398115132788
Source of the keplerian elements: AFSPC